Find Starlink 37180

NORAD ID: 68333 Int'l Des: 2026-059 Owner: SPXS Country: US Constellation: starlink operational
LEOCIRCULAR

Live Position

Loading 3D Globe...

About Starlink 37180

Description loading...

Upcoming Passes

Passes for default location (London). Set your location on the main map for personalized predictions.

Altitude History

Loading altitude history...

Two-Line Element Set

1 68333U 26059N 26110.59291857 .00046743 00000-0 84303-3 0 9996
2 68333 53.1583 154.9058 0001100 81.2600 278.8534 15.49323762 4576
Epoch: Apr 20, 2026 • Age: 51 hours

Current Status

Altitude 418.4 km
Velocity 7.66 km/s
Sub-Earth Point 22.27°N, 50.12°E
Launch Date Mar 22, 2026
Age 31 days
Type internet

Technical Details

Classification Payload
Mass 575.00 kg
Dry Mass 530.00 kg
Total Mass 575.00 kg
Length 0.30 m
Diameter 4.10 m
Span 29.00 m
Shape Box + pan
Manufacturer SPXS
Bus Type Starlink V2MO
Phase Status In Orbit
Owner/State SPXS/US

Most Searched